Location: Ferchesar
(52.6477°N, 12.4298°E)
Time: 15:51:17
(UTC+01:00)

Vanguard 1 - Pass Details

Date: 15 December 2021
Orbit: 652 x 3830 km, 34.2° (Epoch: 22 January)

Event Time Altitude Azimuth Distance (km) Brightness Sun altitude
Rises 22:35:17 0° 241° (WSW) 6,155 14.2 -56.0°
Reaches altitude 10° 22:39:04 10° 235° (SW) 5,511 13.8 -56.3°
Enters shadow 22:41:39 17° 230° (SW) 5,135 13.6 -56.6°
Maximum altitude 22:55:38 44° 171° (S) 4,429 - -57.8°
Drops below altitude 10° 23:16:36 10° 110° (ESE) 6,845 - -59.2°
Sets 23:22:00 0° 105° (ESE) 7,700 - -59.5°
Exits shadow 23:22:06 - 104° (ESE) 7,717 14.5 -59.5°
